Tracking 28799 objects as of 18-Apr-2024
HD Live streaming from Space Station
objects crossing your sky now

CZ-4 DEB

Track CZ-4 DEB now!
10-day predictions


NORAD ID: 26266
Int'l Code: 1999-057FC
Perigee: 643.1 km
Apogee: 770.9 km
Inclination: 98.5 °
Period: 98.8 minutes
Semi major axis: 7077 km
RCS: 0.034 m2 (small)
Launch date: October 14, 1999
Source: People's Republic of China (PRC)
Launch site: Taiyaun Space Center, China (TSC)

Note: This is SATELLITE DEBRIS
Your satellite tracking list
Your tracking list is empty




NASA's NSSDC Master Catalog

Two Line Element Set (TLE):
1 26266U 99057FC  24108.71899638  .00012753  00000-0  26346-2 0  9999
2 26266  98.4697 175.3003 0090328  30.8128 329.8329 14.57931098267378
Source of the keplerian elements: AFSPC